Theta_e
296 296 296 296 296 295 295 295 295 295 296 296 296 297 297 297 297 298 298 298 298 298 298 298 298 298 298 298 298 298 298 299 299 299 299 299 300 300 301 302 302 302
295 295 295 294 294 294 293 293 293 293 293 293 293 294 294 294 294 295 295 296 296 296 297 297 297 297 297 297 297 297 298 298 298 298 298 298 299 298 299 299 300 300
293 293 293 293 293 292 292 291 291 291 291 291 291 291 291 291 291 291 292 292 293 293 294 294 295 295 296 296 297 297 297 297 297 297 297 298 298 298 298 298 298 299
291 291 291 291 291 291 291 290 290 290 290 289 289 289 289 289 289 289 289 289 289 290 290 291 291 292 292 293 294 295 296 296 296 296 296 297 297 297 297 297 297 298
290 290 290 289 289 289 289 289 289 289 289 289 289 288 288 288 288 288 288 287 287 287 288 288 288 288 289 289 290 291 292 293 294 295 295 296 296 296 296 296 297 297
288 288 288 288 288 288 288 288 288 288 288 288 288 288 288 288 288 288 288 287 287 287 287 287 286 287 287 287 287 288 288 289 290 291 292 293 295 295 295 296 296 296
288 288 288 288 288 288 288 288 288 288 288 288 288 288 288 288 288 288 288 287 287 287 287 287 287 286 286 286 286 286 286 287 287 288 288 289 290 292 293 294 294 295
288 288 288 288 288 288 288 288 288 288 288 289 288 288 288 288 288 288 288 288 288 288 287 287 287 287 287 287 286 286 286 286 286 286 287 287 287 288 289 290 291 292
288 288 288 288 288 289 289 289 289 289 289 289 289 289 289 289 289 289 289 289 289 289 288 288 288 288 288 287 287 287 287 286 286 286 286 286 286 286 287 287 288 289
289 289 289 289 289 289 289 289 289 289 289 289 289 289 289 289 289 289 289 289 289 289 289 289 289 289 288 288 288 288 288 287 287 287 286 286 286 286 286 286 286 286
289 289 289 289 289 289 289 289 289 289 289 289 289 289 288 288 288 288 288 289 289 289 289 289 288 289 289 288 288 288 288 288 288 288 288 287 287 286 286 286 286 286
289 289 289 289 289 289 289 289 289 288 288 288 288 288 288 288 288 288 288 288 288 288 288 288 288 288 288 288 288 288 288 288 288 288 288 288 288 288 287 287 286 286
289 289 289 289 289 289 289 288 288 288 288 288 288 288 288 287 287 287 287 287 287 287 286 286 286 286 287 286 287 287 287 287 287 287 287 288 288 288 288 288 287 287
289 289 290 289 289 289 288 288 288 288 288 288 287 287 287 287 286 286 286 286 286 286 286 286 286 286 286 286 286 286 286 286 286 286 286 286 287 287 287 287 288 288
289 290 290 289 289 289 288 288 288 288 287 287 287 286 286 286 286 286 286 285 285 285 285 285 285 285 285 285 285 284 284 284 284 284 284 285 285 286 286 286 287 287
289 289 289 289 289 289 288 288 287 287 286 286 286 286 285 285 285 285 285 285 285 285 285 285 285 285 285 285 284 283 282 282 282 282 282 283 283 284 285 285 286 286
289 289 289 289 289 288 287 287 287 286 285 285 285 285 284 284 284 284 284 284 284 284 284 284 284 285 284 284 283 282 281 280 280 281 281 281 281 282 283 284 284 285
289 289 288 288 288 287 286 285 285 284 284 283 283 283 283 283 283 283 283 283 283 283 283 283 284 284 284 283 283 282 281 280 279 280 280 280 281 281 281 282 283 283
288 287 287 286 286 285 284 284 283 283 283 282 283 283 283 283 283 283 283 283 283 282 283 283 283 283 283 282 282 282 281 279 279 279 279 279 280 280 280 280 281 281
286 285 285 284 284 283 283 283 282 282 282 282 282 283 283 283 283 283 283 282 282 281 281 282 283 282 281 280 280 279 279 278 278 278 279 279 279 279 279 279 279 280
284 284 283 283 283 282 282 282 282 282 282 282 282 282 282 282 282 282 282 281 281 280 280 280 281 280 278 278 277 276 276 276 276 277 278 279 279 279 279 278 278 278
283 283 283 282 282 282 282 282 282 282 282 282 282 282 282 281 281 281 280 279 279 278 277 278 278 277 275 275 274 274 273 273 274 275 276 277 278 278 278 277 277 277
282 282 282 282 282 282 282 282 282 282 281 281 281 281 281 280 280 279 278 277 276 276 274 275 275 274 273 273 272 272 272 272 272 273 273 274 275 276 276 276 276 276
281 281 281 281 281 281 281 281 281 281 281 280 280 280 279 279 278 277 276 274 274 273 272 272 273 272 271 271 271 271 271 270 271 271 271 272 272 273 273 274 274 274
281 280 280 281 281 281 280 280 280 280 280 279 279 278 278 277 276 275 275 273 272 272 271 271 271 271 271 270 270 270 270 269 269 269 269 270 270 271 271 271 272 272
280 280 280 280 280 280 280 280 280 279 279 278 278 277 277 276 274 273 273 272 271 271 271 271 271 270 270 270 270 270 269 268 268 268 269 269 269 270 270 270 270 271
Wind_Speed
11 12 12 13 13 14 14 14 14 14 13 13 13 13 13 14 14 14 14 14 15 15 15 16 16 17 17 17 18 19 21 22 23 24 25 27 28 30 31 32 33 34
11 11 12 12 13 14 15 15 16 15 14 14 14 14 14 14 14 14 14 15 15 15 15 15 16 16 17 17 17 17 18 21 23 23 25 26 27 28 29 30 31 32
9 10 11 12 13 14 15 16 16 16 16 15 15 15 16 16 16 15 15 15 15 16 16 16 16 16 17 17 17 17 16 17 19 21 23 25 26 28 28 28 29 30
8 9 10 11 12 13 13 14 15 16 17 17 17 17 18 18 18 18 18 17 17 17 16 17 17 18 18 18 18 18 17 17 17 18 20 21 23 26 27 28 29 29
8 9 10 10 11 12 12 13 14 15 16 17 17 18 19 20 20 21 21 21 21 20 19 18 18 18 18 18 18 19 19 19 18 18 19 19 18 21 23 25 28 29
9 9 10 10 11 12 12 13 14 14 15 16 17 18 19 20 21 22 22 23 23 23 23 22 21 20 20 19 19 19 19 19 20 20 21 20 19 19 19 21 24 26
11 12 12 12 13 13 14 15 15 16 17 18 18 19 20 21 21 22 23 24 24 25 26 26 26 26 25 24 23 22 21 20 21 21 22 22 22 21 20 20 22 23
15 16 16 17 18 19 20 20 21 21 22 22 22 23 23 24 24 24 25 25 26 26 27 27 28 29 29 29 28 28 27 25 23 23 23 23 23 23 22 22 23 24
18 19 20 21 22 23 24 25 26 27 27 28 28 28 28 28 29 29 29 29 29 29 29 29 30 30 30 31 31 32 32 31 29 27 26 26 25 25 24 24 25 26
20 21 22 23 23 24 26 27 28 29 30 31 32 32 33 33 33 33 33 33 33 33 33 33 33 33 33 33 33 34 35 35 34 33 32 30 29 27 27 26 27 27
22 23 24 25 26 27 28 29 30 30 31 32 33 34 34 35 35 35 35 36 36 37 37 37 37 37 37 36 35 35 36 37 37 37 37 36 34 33 31 29 29 29
24 25 27 28 29 31 32 33 33 34 34 34 34 35 35 36 36 37 37 38 38 38 39 39 39 39 39 39 38 37 37 37 38 38 39 39 39 38 36 34 33 32
25 27 28 29 31 33 35 36 36 37 37 37 37 38 38 38 39 39 40 40 41 41 42 42 42 42 42 41 41 41 40 40 40 40 39 40 40 40 41 40 39 37
28 29 30 31 33 35 37 37 37 37 37 37 38 39 39 40 41 42 43 44 45 46 46 47 47 47 47 47 46 46 45 45 44 44 44 43 42 41 41 42 43 43
31 32 33 34 36 38 39 39 38 38 37 37 38 39 40 42 43 44 45 46 47 48 49 50 52 52 52 53 53 52 52 51 49 48 48 48 48 47 45 44 44 44
32 33 34 35 37 39 40 40 40 39 39 39 40 42 43 44 46 47 48 49 50 51 52 52 53 54 55 56 56 55 53 51 50 49 49 49 50 50 51 50 48 47
31 32 33 36 38 39 40 40 40 40 41 42 44 45 46 47 49 50 51 52 53 54 55 55 55 55 56 56 56 55 51 47 45 46 47 48 49 49 51 53 53 53
32 33 35 37 38 39 39 40 41 42 44 45 47 47 48 49 50 51 52 53 53 54 55 55 56 56 55 55 55 55 53 47 44 44 46 46 47 47 49 51 52 54
33 34 35 36 37 38 39 41 42 44 45 46 47 48 49 49 50 51 51 52 52 53 54 55 56 55 55 55 55 55 54 50 46 46 48 48 49 49 49 50 51 51
32 32 33 35 37 38 41 42 43 45 45 46 47 48 49 50 51 52 52 53 53 54 55 57 57 57 55 55 54 54 54 51 48 50 52 52 53 52 51 50 50 49
30 32 34 37 38 40 41 42 43 45 45 46 47 48 49 51 52 53 54 55 55 55 56 58 59 57 55 54 52 51 50 48 47 50 52 55 56 56 54 52 51 50
32 35 37 39 40 41 42 43 43 44 45 46 47 49 50 51 52 54 55 55 56 55 55 57 58 54 51 50 48 46 45 44 45 47 50 53 56 56 54 53 51 51
34 36 38 39 40 41 41 42 43 43 44 46 48 50 51 52 53 54 53 53 53 52 51 52 53 49 45 43 42 41 40 41 43 44 46 49 52 53 53 53 53 52
35 36 37 38 38 39 40 41 42 43 45 46 48 50 51 51 52 53 51 49 48 47 45 46 47 44 39 38 37 35 35 36 38 40 42 44 46 48 49 49 50 50
35 35 36 36 37 38 39 41 42 44 45 46 47 48 50 50 49 49 49 46 44 43 42 41 42 41 36 34 33 31 29 30 32 35 38 40 40 42 44 44 45 46
34 34 35 35 37 38 40 41 43 44 45 45 46 47 47 47 46 45 45 44 41 41 39 38 38 38 35 31 29 27 25 26 29 32 35 38 38 39 42 43 43 43
Wind_Direction
17 14 13 12 12 13 15 16 15 12 9 7 4 1 359 356 352 348 347 346 342 337 331 325 321 317 313 308 300 290 280 271 266 262 259 258 258 258 256 255 255 256
9 8 6 5 6 7 8 10 9 7 5 4 1 358 355 352 349 345 343 342 341 340 338 335 331 327 324 321 315 308 298 288 280 273 267 263 261 260 259 258 256 255
359 356 356 357 359 1 3 3 1 360 0 358 355 352 350 349 348 345 342 338 336 335 335 335 333 330 329 327 325 323 317 308 300 290 280 273 269 265 263 261 259 257
356 352 352 352 353 354 353 353 350 349 350 349 347 347 346 345 344 344 343 340 338 334 332 332 330 329 329 327 325 324 322 319 315 307 298 290 283 277 272 269 265 262
359 355 353 350 349 348 345 342 340 339 340 339 339 339 339 338 337 338 339 339 340 338 336 333 330 328 327 326 325 323 321 320 317 313 309 307 302 294 288 283 277 272
1 355 353 350 349 348 345 342 339 337 336 335 334 333 332 331 330 330 330 330 332 333 333 333 332 330 328 326 324 322 320 319 317 315 313 311 310 307 305 299 292 286
354 350 349 348 347 346 343 342 339 337 335 334 333 332 330 328 326 325 324 322 322 322 323 324 325 326 326 326 325 323 320 318 316 315 314 313 311 309 308 307 303 299
346 343 343 343 343 342 341 339 338 336 334 332 330 329 328 327 325 322 321 318 317 316 316 316 317 317 318 319 320 320 319 318 317 314 312 311 311 310 309 308 305 303
340 338 339 338 338 338 337 335 334 332 331 329 327 326 324 324 322 320 319 317 315 314 313 312 312 312 312 312 313 314 314 314 314 314 312 310 308 308 308 307 305 303
332 331 332 332 333 332 331 329 327 326 325 324 323 322 320 320 319 318 317 315 314 313 312 312 311 310 309 308 308 309 309 309 309 309 308 307 306 305 304 304 303 302
327 327 327 328 329 328 326 324 322 320 319 318 317 317 317 317 317 316 315 314 313 312 311 311 310 309 308 307 306 306 305 305 304 304 303 303 302 301 300 299 299 298
321 321 322 323 323 323 321 319 318 317 316 317 316 316 315 315 314 313 312 311 311 310 310 309 308 307 307 306 306 305 304 302 301 300 299 299 299 299 298 297 295 294
309 311 313 314 315 316 316 316 315 315 316 316 316 316 315 315 314 313 312 311 310 309 309 308 307 305 305 304 304 303 302 301 299 298 297 296 295 295 295 296 294 293
301 304 306 307 309 311 312 312 312 312 313 313 314 313 313 312 311 311 310 309 309 308 308 307 306 305 305 304 303 302 301 300 298 297 296 295 293 292 291 291 291 292
297 300 302 303 305 308 309 310 310 311 310 310 310 309 309 308 307 307 306 305 305 304 304 304 303 303 303 303 303 303 302 301 300 298 297 295 293 291 289 287 287 287
291 294 296 298 301 304 306 307 307 307 307 307 307 306 305 304 304 303 302 302 301 300 300 299 299 299 299 300 302 303 304 303 302 300 299 297 294 292 289 286 285 283
289 290 292 294 297 299 301 301 302 303 303 303 302 302 301 301 301 301 300 300 299 299 298 297 296 295 295 296 297 300 302 303 302 300 298 296 294 292 289 287 285 283
289 290 291 293 295 297 298 299 299 300 300 300 300 301 301 301 301 301 301 301 300 299 298 297 296 295 294 293 294 295 297 300 300 298 296 293 292 290 288 287 285 284
290 291 293 294 296 297 298 299 300 301 301 302 303 304 304 304 304 304 303 303 302 301 299 298 297 296 295 294 293 292 293 295 296 294 292 290 289 287 286 286 285 284
293 294 295 296 297 299 300 301 303 304 305 306 307 308 308 307 307 306 305 304 303 301 299 297 296 295 295 294 293 292 292 292 293 290 288 287 286 285 285 284 283 283
295 297 299 300 302 303 305 306 307 308 309 310 310 309 309 309 308 307 306 304 302 300 298 296 295 295 295 294 293 293 292 292 291 288 285 284 283 282 283 283 282 281
301 303 304 306 307 308 309 310 310 310 311 311 310 310 309 308 307 306 305 303 302 301 300 298 296 296 297 296 295 294 293 291 289 286 284 283 281 281 281 281 280 279
308 308 309 310 310 311 311 311 311 312 312 312 311 310 310 309 309 307 306 305 304 303 303 301 300 300 301 299 297 296 294 292 289 287 285 283 281 281 280 279 278 278
312 312 312 311 311 312 311 312 313 313 313 313 312 312 312 311 310 308 307 307 306 306 306 304 302 303 304 303 301 300 298 295 293 291 288 286 286 285 283 282 281 280
313 313 312 312 312 313 313 314 315 315 315 314 314 314 313 312 310 309 308 309 309 308 308 307 305 306 307 307 305 305 303 299 296 294 291 290 289 288 287 287 285 284
313 312 312 312 313 315 316 316 316 316 316 316 315 315 313 311 311 310 310 310 311 311 311 310 309 309 310 311 310 308 306 302 299 296 294 293 292 291 290 291 290 290